Flag for Germany Weather past 2 weeks in Rheda-Wiedenbrück, North Rhine-Westphalia, Germany

Now
59 °F

Clear.


Feels Like: 58 °F
Forecast: 59 / 86 °F
Wind: 6 mph from South

Location: Paderborn / Lippstadt

Current Time: Jul 7, 2015 at 12:17:19 AM

Latest Report: Jul 6, 2015 at 11:20 PM


Visibility: 10 mi

Pressure: 30.09 "Hg

Humidity: 77%

Dew point: 52 °F

Location of Rheda-WiedenbrückLocation

Historic Weather in Rheda-Wiedenbrück — Graph

°F

Rheda-Wiedenbrück temperature yesterday

Maximum temperature yesterday: 73 °F (at 4:50 PM)
Minimum temperature yesterday: 57 °F (at 3:50 AM)
Average temperature yesterday: 65 °F

Past Weeks' High & Low Weather Summary

 TemperatureHumidityPressure
High97 °F (Jul 4, 1:50 PM)100% (Jun 24, 3:50 AM)30.27 "Hg (Jun 24, 3:50 AM)
Low46 °F (Jun 23, 1:20 AM)23% (Jul 4, 2:50 PM)29.68 "Hg (Jun 22, 8:20 PM)
Average66 °F63%30.09 "Hg
* Reported Jun 21 10:20 PM — Jul 6 10:20 PM, Rheda-Wiedenbrück, Weather by CustomWeather, © 2015

Note: Actual official high and low records may vary slightly from our data, if they occured in-between our weather recording intervals... More about our weather records

Advertising

Rheda-Wiedenbrück weather history for previous 24 hours

 ConditionsComfort  
Time TempWeatherWind HumidityBarometerVisibility
10:20 PM
Mon, Jul 6
63 °FSunny.1 mph59%30.09 "Hg10 mi
9:50 PM64 °FSunny.1 mph60%30.09 "Hg10 mi
9:20 PM68 °FSunny.1 mph49%30.09 "Hg10 mi
8:50 PM72 °FSunny.2 mph41%30.09 "Hg10 mi
8:20 PM72 °FSunny.3 mph41%30.09 "Hg10 mi
7:50 PM72 °FPassing clouds.6 mph38%30.12 "HgN/A
7:20 PM72 °FPassing clouds.6 mph38%30.12 "HgN/A
6:50 PM72 °FPassing clouds.6 mph41%30.12 "HgN/A
6:20 PM72 °FPassing clouds.7 mph41%30.12 "HgN/A
5:50 PM72 °FPassing clouds.7 mph41%30.12 "HgN/A
5:20 PM72 °FPassing clouds.7 mph41%30.12 "HgN/A
4:50 PM73 °FPassing clouds.7 mph41%30.15 "HgN/A
4:20 PM72 °FSunny.6 mph44%30.15 "Hg10 mi
3:50 PM70 °FPassing clouds.9 mph43%30.15 "HgN/A
3:20 PM70 °FScattered clouds.8 mph43%30.15 "HgN/A
2:50 PM72 °FScattered clouds.8 mph44%30.15 "HgN/A
2:20 PM68 °FScattered clouds.10 mph46%30.18 "HgN/A
1:50 PM70 °FScattered clouds.8 mph40%30.18 "HgN/A
1:20 PM68 °FScattered clouds.12 mph46%30.18 "HgN/A
12:50 PM66 °FScattered clouds.10 mph52%30.18 "HgN/A
12:20 PM68 °FScattered clouds.8 mph49%30.18 "HgN/A
11:50 AM66 °FScattered clouds.8 mph56%30.18 "HgN/A
11:20 AM66 °FScattered clouds.8 mph64%30.18 "HgN/A
10:50 AM64 °FScattered clouds.7 mph68%30.18 "HgN/A
10:20 AM64 °FScattered clouds.9 mph68%30.18 "HgN/A
9:50 AM63 °FScattered clouds.8 mph73%30.18 "HgN/A
9:20 AM63 °FScattered clouds.12 mph77%30.15 "HgN/A
8:50 AM59 °FScattered clouds.8 mph82%30.15 "HgN/A
8:20 AM61 °FScattered clouds.9 mph77%30.15 "HgN/A
7:50 AM59 °FScattered clouds.12 mph82%30.15 "HgN/A
7:20 AM59 °FScattered clouds.7 mph82%30.15 "HgN/A
6:50 AM59 °FScattered clouds.9 mph88%30.12 "HgN/A
6:20 AM57 °FScattered clouds.6 mph94%30.12 "HgN/A
5:20 AM57 °FPassing clouds.5 mph94%30.12 "HgN/A
4:50 AM59 °FPassing clouds.7 mph88%30.12 "HgN/A
4:20 AM59 °FClear.7 mph88%30.12 "Hg10 mi
3:50 AM57 °FClear.6 mph94%30.12 "Hg10 mi
3:20 AM59 °FClear.9 mph88%30.12 "Hg10 mi
2:50 AM59 °FClear.7 mph94%30.12 "Hg10 mi
2:20 AM61 °FClear.6 mph88%30.09 "Hg10 mi
1:50 AM61 °FPassing clouds.8 mph88%30.09 "HgN/A
1:20 AM61 °FPassing clouds.5 mph94%30.07 "HgN/A
12:50 AM61 °FPassing clouds.5 mph94%30.07 "HgN/A
12:20 AM61 °FPassing clouds.6 mph94%30.07 "HgN/A
Weather by CustomWeather, © 2015

See weather overviewHow to use our weather pages